Tracking 19192 objects as of 22-Jun-2018
HD Live streaming from Space Station
objects crossing your sky now

FENGYUN 1C DEB

Track FENGYUN 1C DEB now!
10-day predictions


NORAD ID: 30744
Int'l Code: 1999-025ATE
Perigee: 782.0 km
Apogee: 813.0 km
Inclination: 98.8 °
Period: 100.7 minutes
Semi major axis: 7168 km
RCS: 0.029 m2 (small)
Launch date: May 10, 1999
Source: People's Republic of China (PRC)
Launch site: Taiyaun Space Center, China (TSC)

Note: This is SATELLITE DEBRIS
aabbcc
Your satellite tracking list
Your tracking list is empty




NASA's NSSDC Master Catalog

Two Line Element Set (TLE):
1 30744U 99025ATE 18172.60578519 +.00000865 +00000-0 +34907-3 0  9998
2 30744 098.8284 214.7310 0021613 134.6172 356.6732 14.30419627587586
Source of the keplerian elements: AFSPC